Time,TemperatureF,DewpointF,PressureIn,WindDirection,WindDirectionDegrees,WindSpeedMPH,WindSpeedGustMPH,Humidity,HourlyPrecipIn,Conditions,Clouds,dailyrainin,SoftwareType,DateUTC
2013-05-08 00:01:00,61.5,47.1,30.17,WNW,286,0.0,6.0,59,0.00,,,0.00,meteohub,2013-05-08 04:01:00,
2013-05-08 00:06:00,61.5,47.5,30.17,SSW,211,0.0,6.0,60,0.00,,,0.00,meteohub,2013-05-08 04:06:00,
2013-05-08 00:11:00,61.5,48.0,30.17,SW,219,4.0,5.0,61,0.00,,,0.00,meteohub,2013-05-08 04:11:00,
2013-05-08 00:16:00,62.1,48.9,30.17,SW,220,0.0,5.0,62,0.00,,,0.00,meteohub,2013-05-08 04:16:00,
2013-05-08 00:21:00,62.1,48.0,30.17,NW,309,0.0,5.0,60,0.00,,,0.00,meteohub,2013-05-08 04:21:00,
2013-05-08 00:26:00,61.5,48.7,30.17,NW,309,0.0,5.0,63,0.00,,,0.00,meteohub,2013-05-08 04:26:00,
2013-05-08 00:31:00,60.4,48.6,30.17,NW,309,0.0,4.0,65,0.00,,,0.00,meteohub,2013-05-08 04:31:00,
2013-05-08 00:36:00,59.5,48.9,30.17,NW,309,0.0,3.0,68,0.00,,,0.00,meteohub,2013-05-08 04:36:00,
2013-05-08 00:41:00,58.8,49.1,30.17,NW,317,2.0,2.0,70,0.00,,,0.00,meteohub,2013-05-08 04:41:00,
2013-05-08 00:46:00,58.5,49.1,30.17,NNW,347,0.0,3.0,71,0.00,,,0.00,meteohub,2013-05-08 04:46:00,
2013-05-08 00:51:00,58.3,48.9,30.17,NNW,347,0.0,3.0,71,0.00,,,0.00,meteohub,2013-05-08 04:51:00,
2013-05-08 00:56:00,58.6,48.9,30.17,NE,49,1.0,3.0,70,0.00,,,0.00,meteohub,2013-05-08 04:56:00,
2013-05-08 01:01:00,58.3,48.9,30.17,NE,49,0.0,2.0,71,0.00,,,0.00,meteohub,2013-05-08 05:01:00,
2013-05-08 01:06:00,58.6,48.9,30.17,NE,49,1.0,2.0,70,0.00,,,0.00,meteohub,2013-05-08 05:06:00,
2013-05-08 01:11:00,58.5,49.5,30.17,East,101,2.0,2.0,72,0.00,,,0.00,meteohub,2013-05-08 05:11:00,
2013-05-08 01:16:00,58.8,49.5,30.17,SE,138,0.0,7.0,71,0.00,,,0.00,meteohub,2013-05-08 05:16:00,
2013-05-08 01:21:00,58.6,49.3,30.17,SE,138,0.0,7.0,71,0.00,,,0.00,meteohub,2013-05-08 05:21:00,
2013-05-08 01:26:00,58.5,49.1,30.17,SE,138,0.0,7.0,71,0.00,,,0.00,meteohub,2013-05-08 05:26:00,
2013-05-08 01:31:00,57.9,49.3,30.16,SE,138,0.0,1.0,73,0.00,,,0.00,meteohub,2013-05-08 05:31:00,
2013-05-08 01:36:00,56.8,48.9,30.16,SE,138,0.0,2.0,75,0.00,,,0.00,meteohub,2013-05-08 05:36:00,
2013-05-08 01:41:00,56.5,49.3,30.16,SE,138,0.0,2.0,77,0.00,,,0.00,meteohub,2013-05-08 05:41:00,
2013-05-08 01:47:00,56.1,49.3,30.16,SE,138,0.0,2.0,78,0.00,,,0.00,meteohub,2013-05-08 05:47:00,
2013-05-08 01:52:00,56.1,49.6,30.16,SE,138,0.0,1.0,79,0.00,,,0.00,meteohub,2013-05-08 05:52:00,
2013-05-08 01:57:00,56.3,49.8,30.16,SE,138,0.0,1.0,79,0.00,,,0.00,meteohub,2013-05-08 05:57:00,
2013-05-08 02:02:00,56.1,49.6,30.16,SE,138,2.0,2.0,79,0.00,,,0.00,meteohub,2013-05-08 06:02:00,
2013-05-08 02:07:00,55.9,50.2,30.16,SE,137,0.0,2.0,81,0.00,,,0.00,meteohub,2013-05-08 06:07:00,
2013-05-08 02:12:00,56.5,50.4,30.16,ESE,105,0.0,2.0,80,0.00,,,0.00,meteohub,2013-05-08 06:12:00,
2013-05-08 02:17:00,56.7,50.5,30.16,ESE,105,0.0,2.0,80,0.00,,,0.00,meteohub,2013-05-08 06:17:00,
2013-05-08 02:22:00,56.1,50.0,30.16,ESE,105,0.0,2.0,80,0.00,,,0.00,meteohub,2013-05-08 06:22:00,
2013-05-08 02:27:00,55.6,50.2,30.16,ESE,105,1.0,2.0,82,0.00,,,0.00,meteohub,2013-05-08 06:27:00,
2013-05-08 02:32:00,55.0,50.4,30.16,ESE,105,1.0,2.0,84,0.00,,,0.00,meteohub,2013-05-08 06:32:00,
2013-05-08 02:37:00,54.9,50.2,30.16,ESE,105,0.0,2.0,84,0.00,,,0.00,meteohub,2013-05-08 06:37:00,
2013-05-08 02:42:00,54.7,50.2,30.16,ESE,105,0.0,2.0,85,0.00,,,0.00,meteohub,2013-05-08 06:42:00,
2013-05-08 02:47:00,54.5,50.0,30.16,ESE,105,1.0,1.0,85,0.00,,,0.00,meteohub,2013-05-08 06:47:00,
2013-05-08 02:52:00,54.1,50.0,30.16,ESE,105,0.0,1.0,86,0.00,,,0.00,meteohub,2013-05-08 06:52:00,
2013-05-08 02:57:00,54.1,50.7,30.16,ESE,105,0.0,1.0,88,0.00,,,0.00,meteohub,2013-05-08 06:57:00,
2013-05-08 03:02:00,54.5,50.7,30.16,ESE,105,0.0,1.0,87,0.00,,,0.00,meteohub,2013-05-08 07:02:00,
2013-05-08 03:07:00,54.5,50.4,30.16,ESE,105,0.0,1.0,86,0.00,,,0.00,meteohub,2013-05-08 07:07:00,
2013-05-08 03:12:00,54.3,50.5,30.16,ESE,105,0.0,1.0,87,0.00,,,0.00,meteohub,2013-05-08 07:12:00,
2013-05-08 03:17:00,54.7,50.9,30.16,ESE,105,0.0,1.0,87,0.00,,,0.00,meteohub,2013-05-08 07:17:00,
2013-05-08 03:22:00,54.5,50.4,30.16,ESE,105,0.0,1.0,86,0.00,,,0.00,meteohub,2013-05-08 07:22:00,
2013-05-08 03:27:00,54.3,50.5,30.16,ESE,105,0.0,1.0,87,0.00,,,0.00,meteohub,2013-05-08 07:27:00,
2013-05-08 03:32:00,54.1,50.4,30.15,ESE,105,0.0,1.0,87,0.00,,,0.00,meteohub,2013-05-08 07:32:00,
2013-05-08 03:37:00,54.3,50.5,30.15,ESE,105,0.0,1.0,87,0.00,,,0.00,meteohub,2013-05-08 07:37:00,
2013-05-08 03:42:00,54.1,50.4,30.16,ESE,105,0.0,1.0,87,0.00,,,0.00,meteohub,2013-05-08 07:42:00,
2013-05-08 03:47:00,54.1,50.9,30.15,ESE,105,0.0,1.0,89,0.00,,,0.00,meteohub,2013-05-08 07:47:00,
2013-05-08 03:52:00,54.5,51.6,30.15,ESE,105,0.0,1.0,90,0.00,,,0.00,meteohub,2013-05-08 07:52:00,
2013-05-08 03:57:00,54.7,50.9,30.16,ESE,105,0.0,1.0,87,0.00,,,0.00,meteohub,2013-05-08 07:57:00,
2013-05-08 04:02:00,54.1,50.4,30.16,ESE,105,0.0,1.0,87,0.00,,,0.00,meteohub,2013-05-08 08:02:00,
2013-05-08 04:07:00,53.8,50.5,30.16,ESE,105,0.0,1.0,89,0.00,,,0.00,meteohub,2013-05-08 08:07:00,
2013-05-08 04:12:00,54.0,51.1,30.16,ESE,105,0.0,1.0,90,0.00,,,0.00,meteohub,2013-05-08 08:12:00,
2013-05-08 04:17:00,54.0,50.7,30.16,ESE,105,0.0,1.0,89,0.00,,,0.00,meteohub,2013-05-08 08:17:00,
2013-05-08 04:22:00,53.6,50.7,30.16,ESE,105,0.0,0.0,90,0.00,,,0.00,meteohub,2013-05-08 08:22:00,
2013-05-08 04:27:00,53.6,50.7,30.16,ESE,105,0.0,1.0,90,0.00,,,0.00,meteohub,2013-05-08 08:27:00,
2013-05-08 04:32:00,53.2,50.0,30.16,ESE,105,0.0,1.0,89,0.00,,,0.00,meteohub,2013-05-08 08:32:00,
2013-05-08 04:37:00,52.9,50.0,30.16,ESE,105,0.0,1.0,90,0.00,,,0.00,meteohub,2013-05-08 08:37:00,
2013-05-08 04:42:00,52.5,50.0,30.16,ESE,105,0.0,1.0,91,0.00,,,0.00,meteohub,2013-05-08 08:42:00,
2013-05-08 04:47:00,52.3,50.0,30.16,ESE,105,0.0,1.0,92,0.00,,,0.00,meteohub,2013-05-08 08:47:00,
2013-05-08 04:52:00,52.3,50.4,30.16,ESE,105,0.0,1.0,93,0.00,,,0.00,meteohub,2013-05-08 08:52:00,
2013-05-08 04:57:00,52.5,50.5,30.16,ESE,105,0.0,1.0,93,0.00,,,0.00,meteohub,2013-05-08 08:57:00,
2013-05-08 05:02:00,52.9,50.5,30.16,ESE,105,0.0,1.0,92,0.00,,,0.00,meteohub,2013-05-08 09:02:00,
2013-05-08 05:07:00,52.9,50.5,30.16,ESE,105,0.0,1.0,92,0.00,,,0.00,meteohub,2013-05-08 09:07:00,
2013-05-08 05:12:00,52.5,50.0,30.16,ESE,105,0.0,1.0,91,0.00,,,0.00,meteohub,2013-05-08 09:12:00,
2013-05-08 05:17:00,52.3,50.0,30.17,ESE,105,0.0,1.0,92,0.00,,,0.00,meteohub,2013-05-08 09:17:00,
2013-05-08 05:22:00,52.7,50.4,30.17,ESE,105,0.0,1.0,92,0.00,,,0.00,meteohub,2013-05-08 09:22:00,
2013-05-08 05:27:00,53.1,50.7,30.17,ESE,105,0.0,1.0,92,0.00,,,0.00,meteohub,2013-05-08 09:27:00,
2013-05-08 05:32:00,52.9,50.4,30.17,ESE,105,0.0,1.0,91,0.00,,,0.00,meteohub,2013-05-08 09:32:00,
2013-05-08 05:37:00,53.1,51.1,30.17,East,101,0.0,1.0,93,0.00,,,0.00,meteohub,2013-05-08 09:37:00,
2013-05-08 05:42:00,53.1,50.5,30.17,East,101,0.0,1.0,91,0.00,,,0.00,meteohub,2013-05-08 09:42:00,
2013-05-08 05:47:00,52.9,50.5,30.17,East,101,1.0,1.0,92,0.00,,,0.00,meteohub,2013-05-08 09:47:00,
2013-05-08 05:52:00,53.2,50.9,30.17,East,101,0.0,1.0,92,0.00,,,0.00,meteohub,2013-05-08 09:52:00,
2013-05-08 05:57:00,53.1,50.5,30.17,East,101,0.0,1.0,91,0.00,,,0.00,meteohub,2013-05-08 09:57:00,
2013-05-08 06:02:00,52.5,50.0,30.17,East,101,0.0,1.0,91,0.00,,,0.00,meteohub,2013-05-08 10:02:00,
2013-05-08 06:07:00,52.3,50.4,30.17,East,101,0.0,1.0,93,0.00,,,0.00,meteohub,2013-05-08 10:07:00,
2013-05-08 06:12:00,52.5,50.5,30.18,East,101,0.0,1.0,93,0.00,,,0.00,meteohub,2013-05-08 10:12:00,
2013-05-08 06:17:00,52.5,50.5,30.18,East,101,0.0,1.0,93,0.00,,,0.00,meteohub,2013-05-08 10:17:00,
2013-05-08 06:22:00,52.7,50.4,30.18,East,101,0.0,1.0,92,0.00,,,0.00,meteohub,2013-05-08 10:22:00,
2013-05-08 06:27:00,53.1,50.5,30.18,East,101,0.0,1.0,91,0.00,,,0.00,meteohub,2013-05-08 10:27:00,
2013-05-08 06:32:00,53.1,50.5,30.18,East,101,0.0,1.0,91,0.00,,,0.00,meteohub,2013-05-08 10:32:00,
2013-05-08 06:37:00,53.1,50.5,30.18,East,101,0.0,1.0,91,0.00,,,0.00,meteohub,2013-05-08 10:37:00,
2013-05-08 06:42:00,53.4,50.5,30.18,East,101,0.0,1.0,90,0.00,,,0.00,meteohub,2013-05-08 10:42:00,
2013-05-08 06:47:00,54.3,50.9,30.18,East,101,0.0,0.0,88,0.00,,,0.00,meteohub,2013-05-08 10:47:00,
2013-05-08 06:52:00,55.6,52.2,30.18,East,101,0.0,0.0,88,0.00,,,0.00,meteohub,2013-05-08 10:52:00,
2013-05-08 06:57:00,56.8,52.7,30.18,SE,128,1.0,0.0,86,0.00,,,0.00,meteohub,2013-05-08 10:57:00,
2013-05-08 07:02:00,57.7,52.7,30.18,SSE,155,0.0,3.0,83,0.00,,,0.00,meteohub,2013-05-08 11:02:00,
2013-05-08 07:07:00,58.3,52.2,30.19,SSE,155,0.0,3.0,80,0.00,,,0.00,meteohub,2013-05-08 11:07:00,
2013-05-08 07:12:00,58.6,52.2,30.19,South,171,0.0,3.0,79,0.00,,,0.00,meteohub,2013-05-08 11:12:00,
2013-05-08 07:17:00,58.8,53.1,30.19,South,171,1.0,3.0,81,0.00,,,0.00,meteohub,2013-05-08 11:17:00,
2013-05-08 07:22:00,58.6,52.5,30.19,South,171,1.0,3.0,80,0.00,,,0.00,meteohub,2013-05-08 11:22:00,
2013-05-08 07:27:00,58.5,52.7,30.19,South,171,1.0,3.0,81,0.00,,,0.00,meteohub,2013-05-08 11:27:00,
2013-05-08 07:32:00,58.5,52.7,30.19,SE,143,3.0,3.0,81,0.00,,,0.00,meteohub,2013-05-08 11:32:00,
2013-05-08 07:37:00,58.6,52.5,30.19,SSE,152,0.0,4.0,80,0.00,,,0.00,meteohub,2013-05-08 11:37:00,
2013-05-08 07:42:00,58.8,52.7,30.19,SE,125,1.0,4.0,80,0.00,,,0.00,meteohub,2013-05-08 11:42:00,
2013-05-08 07:47:00,59.4,52.9,30.19,ESE,116,0.0,4.0,79,0.00,,,0.00,meteohub,2013-05-08 11:47:00,
2013-05-08 07:52:00,59.7,52.9,30.19,SE,137,2.0,4.0,78,0.00,,,0.00,meteohub,2013-05-08 11:52:00,
2013-05-08 07:57:00,59.9,53.1,30.19,SSE,163,0.0,4.0,78,0.00,,,0.00,meteohub,2013-05-08 11:57:00,
2013-05-08 08:02:00,59.9,53.4,30.20,SSE,163,2.0,3.0,79,0.00,,,0.00,meteohub,2013-05-08 12:02:00,
2013-05-08 08:07:00,60.1,53.2,30.20,South,170,2.0,4.0,78,0.00,,,0.00,meteohub,2013-05-08 12:07:00,
2013-05-08 08:12:00,60.3,53.8,30.20,SSE,163,2.0,5.0,79,0.00,,,0.00,meteohub,2013-05-08 12:12:00,
2013-05-08 08:17:00,61.0,54.5,30.20,SSE,161,3.0,5.0,79,0.00,,,0.00,meteohub,2013-05-08 12:17:00,
2013-05-08 08:22:00,61.2,54.3,30.20,South,182,2.0,5.0,78,0.00,,,0.00,meteohub,2013-05-08 12:22:00,
2013-05-08 08:27:00,61.3,54.5,30.20,SSE,161,0.0,5.0,78,0.00,,,0.00,meteohub,2013-05-08 12:27:00,
2013-05-08 08:32:00,61.7,55.0,30.20,SSE,157,5.0,5.0,79,0.00,,,0.00,meteohub,2013-05-08 12:32:00,
2013-05-08 08:37:00,62.1,55.4,30.20,ESE,122,4.0,7.0,79,0.00,,,0.00,meteohub,2013-05-08 12:37:00,
2013-05-08 08:42:00,62.6,55.6,30.20,SSE,148,6.0,11.0,78,0.00,,,0.00,meteohub,2013-05-08 12:42:00,
2013-05-08 08:47:00,63.1,55.8,30.21,South,175,5.0,11.0,77,0.00,,,0.00,meteohub,2013-05-08 12:47:00,
2013-05-08 08:52:00,63.3,56.3,30.20,SSW,211,4.0,11.0,78,0.00,,,0.00,meteohub,2013-05-08 12:52:00,
2013-05-08 08:57:00,63.9,56.5,30.20,SSE,148,6.0,11.0,77,0.00,,,0.00,meteohub,2013-05-08 12:57:00,
2013-05-08 09:02:00,64.2,56.5,30.21,SSW,200,5.0,11.0,76,0.00,,,0.00,meteohub,2013-05-08 13:02:00,
2013-05-08 09:07:00,64.6,56.8,30.20,ESE,107,5.0,11.0,76,0.00,,,0.00,meteohub,2013-05-08 13:07:00,
2013-05-08 09:12:00,64.8,56.7,30.20,South,181,1.0,11.0,75,0.00,,,0.00,meteohub,2013-05-08 13:12:00,
2013-05-08 09:17:00,64.9,56.5,30.20,South,188,5.0,11.0,74,0.00,,,0.00,meteohub,2013-05-08 13:17:00,
2013-05-08 09:22:00,64.6,56.5,30.20,SE,145,3.0,8.0,75,0.00,,,0.00,meteohub,2013-05-08 13:22:00,
2013-05-08 09:27:00,64.2,56.5,30.20,SE,138,5.0,7.0,76,0.00,,,0.00,meteohub,2013-05-08 13:27:00,
2013-05-08 09:32:00,64.0,55.9,30.20,South,172,3.0,10.0,75,0.00,,,0.00,meteohub,2013-05-08 13:32:00,
2013-05-08 09:37:00,63.9,56.8,30.20,South,170,2.0,10.0,78,0.00,,,0.00,meteohub,2013-05-08 13:37:00,
2013-05-08 09:42:00,64.2,55.8,30.20,SE,142,8.0,10.0,74,0.00,,,0.00,meteohub,2013-05-08 13:42:00,
2013-05-08 09:47:00,64.2,56.1,30.20,SSE,164,7.0,12.0,75,0.00,,,0.00,meteohub,2013-05-08 13:47:00,
2013-05-08 09:52:00,64.6,56.5,30.19,SW,215,6.0,12.0,75,0.00,,,0.00,meteohub,2013-05-08 13:52:00,
2013-05-08 09:57:00,64.8,55.9,30.20,SE,131,3.0,10.0,73,0.00,,,0.00,meteohub,2013-05-08 13:57:00,
2013-05-08 10:02:00,65.1,56.3,30.20,SE,141,6.0,9.0,73,0.00,,,0.00,meteohub,2013-05-08 14:02:00,
2013-05-08 10:07:00,65.5,55.4,30.20,SE,132,12.0,12.0,70,0.00,,,0.00,meteohub,2013-05-08 14:07:00,
2013-05-08 10:12:00,65.1,55.9,30.20,South,188,3.0,13.0,72,0.00,,,0.00,meteohub,2013-05-08 14:12:00,
2013-05-08 10:17:00,65.5,55.4,30.19,SSW,192,7.0,13.0,70,0.00,,,0.00,meteohub,2013-05-08 14:17:00,
2013-05-08 10:22:00,65.8,55.4,30.20,South,175,4.0,13.0,69,0.00,,,0.00,meteohub,2013-05-08 14:22:00,
2013-05-08 10:27:00,65.7,55.2,30.19,SE,140,10.0,13.0,69,0.00,,,0.00,meteohub,2013-05-08 14:27:00,
2013-05-08 10:32:00,66.4,56.3,30.19,SSW,196,7.0,13.0,70,0.00,,,0.00,meteohub,2013-05-08 14:32:00,
2013-05-08 10:37:00,66.4,56.3,30.19,SW,235,6.0,11.0,70,0.00,,,0.00,meteohub,2013-05-08 14:37:00,
2013-05-08 10:42:00,67.1,56.1,30.19,SW,234,8.0,11.0,68,0.00,,,0.00,meteohub,2013-05-08 14:42:00,
2013-05-08 10:47:00,67.3,55.9,30.19,South,173,4.0,11.0,67,0.00,,,0.00,meteohub,2013-05-08 14:47:00,
2013-05-08 10:52:00,67.3,54.7,30.19,SSE,150,8.0,13.0,64,0.00,,,0.00,meteohub,2013-05-08 14:52:00,
2013-05-08 10:57:00,66.9,54.3,30.19,SSE,150,5.0,13.0,64,0.00,,,0.00,meteohub,2013-05-08 14:57:00,
2013-05-08 11:02:00,66.7,55.4,30.19,SSW,207,5.0,13.0,67,0.00,,,0.00,meteohub,2013-05-08 15:02:00,
2013-05-08 11:07:00,66.9,54.3,30.18,South,171,3.0,11.0,64,0.00,,,0.00,meteohub,2013-05-08 15:07:00,
2013-05-08 11:12:00,67.1,54.5,30.18,SSW,192,6.0,11.0,64,0.00,,,0.00,meteohub,2013-05-08 15:12:00,
2013-05-08 11:17:00,67.5,55.2,30.18,SSE,148,5.0,12.0,65,0.00,,,0.00,meteohub,2013-05-08 15:17:00,
2013-05-08 11:22:00,67.1,54.5,30.18,South,178,8.0,12.0,64,0.00,,,0.00,meteohub,2013-05-08 15:22:00,
2013-05-08 11:27:00,66.2,54.1,30.18,SE,137,4.0,13.0,65,0.00,,,0.00,meteohub,2013-05-08 15:27:00,
2013-05-08 11:32:00,65.8,55.0,30.19,SSW,192,3.0,13.0,68,0.00,,,0.00,meteohub,2013-05-08 15:32:00,
2013-05-08 11:37:00,66.7,55.4,30.18,South,189,3.0,13.0,67,0.00,,,0.00,meteohub,2013-05-08 15:37:00,
2013-05-08 11:42:00,67.6,56.3,30.18,South,180,3.0,10.0,67,0.00,,,0.00,meteohub,2013-05-08 15:42:00,
2013-05-08 11:47:00,67.8,56.1,30.17,South,177,4.0,14.0,66,0.00,,,0.00,meteohub,2013-05-08 15:47:00,
2013-05-08 11:52:00,67.5,56.1,30.17,South,186,3.0,14.0,67,0.00,,,0.00,meteohub,2013-05-08 15:52:00,
2013-05-08 11:57:00,66.9,55.6,30.17,SE,128,5.0,13.0,67,0.00,,,0.00,meteohub,2013-05-08 15:57:00,
2013-05-08 12:02:00,66.9,55.9,30.17,ESE,102,5.0,11.0,68,0.00,,,0.00,meteohub,2013-05-08 16:02:00,
2013-05-08 12:07:00,67.1,56.7,30.17,South,190,6.0,12.0,69,0.00,,,0.00,meteohub,2013-05-08 16:07:00,
2013-05-08 12:12:00,67.5,56.5,30.17,South,171,3.0,13.0,68,0.00,,,0.00,meteohub,2013-05-08 16:12:00,
2013-05-08 12:17:00,67.6,56.3,30.17,SE,144,7.0,13.0,67,0.00,,,0.00,meteohub,2013-05-08 16:17:00,
2013-05-08 12:23:00,67.1,55.8,30.17,South,178,3.0,13.0,67,0.00,,,0.00,meteohub,2013-05-08 16:23:00,
2013-05-08 12:28:00,66.7,56.3,30.16,SSE,167,7.0,12.0,69,0.00,,,0.00,meteohub,2013-05-08 16:28:00,
2013-05-08 12:33:00,66.7,55.8,30.16,SSE,167,3.0,13.0,68,0.00,,,0.00,meteohub,2013-05-08 16:33:00,
2013-05-08 12:38:00,66.6,56.1,30.16,SSW,196,4.0,13.0,69,0.00,,,0.00,meteohub,2013-05-08 16:38:00,
2013-05-08 12:43:00,66.6,56.5,30.16,SE,143,6.0,13.0,70,0.00,,,0.00,meteohub,2013-05-08 16:43:00,
2013-05-08 12:48:00,66.6,56.5,30.15,SSE,155,5.0,11.0,70,0.00,,,0.00,meteohub,2013-05-08 16:48:00,
2013-05-08 12:53:00,66.6,56.1,30.15,SE,134,6.0,9.0,69,0.00,,,0.00,meteohub,2013-05-08 16:53:00,
2013-05-08 12:58:00,66.4,56.7,30.15,South,169,4.0,9.0,71,0.00,,,0.00,meteohub,2013-05-08 16:58:00,
2013-05-08 13:03:00,65.5,58.1,30.15,South,171,1.0,9.0,77,0.01,,,0.01,meteohub,2013-05-08 17:03:00,
2013-05-08 13:08:00,64.9,58.6,30.15,SSE,157,1.0,7.0,80,0.01,,,0.01,meteohub,2013-05-08 17:08:00,
2013-05-08 13:13:00,64.6,57.6,30.14,SSE,167,3.0,7.0,78,0.02,,,0.02,meteohub,2013-05-08 17:13:00,
2013-05-08 13:18:00,64.9,58.6,30.14,SSW,198,1.0,7.0,80,0.02,,,0.02,meteohub,2013-05-08 17:18:00,
2013-05-08 13:23:00,65.1,58.5,30.14,SE,134,4.0,7.0,79,0.02,,,0.02,meteohub,2013-05-08 17:23:00,
2013-05-08 13:28:00,66.0,57.6,30.14,SSW,202,4.0,7.0,74,0.02,,,0.02,meteohub,2013-05-08 17:28:00,
2013-05-08 13:33:00,67.1,57.4,30.14,SSW,202,6.0,8.0,71,0.02,,,0.02,meteohub,2013-05-08 17:33:00,
2013-05-08 13:38:00,67.5,57.4,30.14,SSW,212,5.0,8.0,70,0.02,,,0.02,meteohub,2013-05-08 17:38:00,
2013-05-08 13:43:00,67.1,56.7,30.14,SSW,203,6.0,11.0,69,0.02,,,0.02,meteohub,2013-05-08 17:43:00,
2013-05-08 13:48:00,67.5,55.8,30.14,SSW,202,6.0,14.0,66,0.02,,,0.02,meteohub,2013-05-08 17:48:00,
2013-05-08 13:53:00,67.6,57.0,30.14,South,171,6.0,14.0,69,0.02,,,0.02,meteohub,2013-05-08 17:53:00,
2013-05-08 13:58:00,67.6,56.3,30.14,SSW,192,6.0,14.0,67,0.02,,,0.02,meteohub,2013-05-08 17:58:00,
2013-05-08 14:03:00,67.5,55.8,30.13,SSW,196,4.0,17.0,66,0.01,,,0.02,meteohub,2013-05-08 18:03:00,
2013-05-08 14:08:00,67.6,55.9,30.13,SSW,197,3.0,18.0,66,0.01,,,0.02,meteohub,2013-05-08 18:08:00,
2013-05-08 14:13:00,67.8,56.8,30.13,SSE,167,4.0,18.0,68,0.00,,,0.02,meteohub,2013-05-08 18:13:00,
2013-05-08 14:18:00,68.2,56.3,30.13,SSW,197,4.0,18.0,66,0.00,,,0.02,meteohub,2013-05-08 18:18:00,
2013-05-08 14:23:00,68.4,56.5,30.13,SW,218,8.0,15.0,66,0.00,,,0.02,meteohub,2013-05-08 18:23:00,
2013-05-08 14:28:00,69.1,56.8,30.12,SW,225,11.0,12.0,65,0.00,,,0.02,meteohub,2013-05-08 18:28:00,
2013-05-08 14:33:00,69.4,57.2,30.12,SSW,207,9.0,11.0,65,0.00,,,0.02,meteohub,2013-05-08 18:33:00,
2013-05-08 14:38:00,69.4,57.2,30.12,SSW,208,8.0,14.0,65,0.00,,,0.02,meteohub,2013-05-08 18:38:00,
2013-05-08 14:43:00,69.3,57.9,30.12,South,178,3.0,16.0,67,0.00,,,0.02,meteohub,2013-05-08 18:43:00,
2013-05-08 14:48:00,69.4,56.3,30.12,South,177,4.0,16.0,63,0.00,,,0.02,meteohub,2013-05-08 18:48:00,
2013-05-08 14:53:00,69.3,57.0,30.11,South,179,4.0,20.0,65,0.00,,,0.02,meteohub,2013-05-08 18:53:00,
2013-05-08 14:58:00,69.3,57.0,30.11,SE,141,5.0,20.0,65,0.00,,,0.02,meteohub,2013-05-08 18:58:00,
2013-05-08 15:03:00,69.3,56.5,30.11,SSE,157,6.0,20.0,64,0.00,,,0.02,meteohub,2013-05-08 19:03:00,
2013-05-08 15:08:00,68.5,55.9,30.11,SSW,196,5.0,12.0,64,0.00,,,0.02,meteohub,2013-05-08 19:08:00,
2013-05-08 15:13:00,67.5,57.0,30.11,South,179,6.0,13.0,69,0.00,,,0.02,meteohub,2013-05-08 19:13:00,
2013-05-08 15:18:00,64.8,58.1,30.11,SE,142,6.0,13.0,79,0.00,,,0.02,meteohub,2013-05-08 19:18:00,
2013-05-08 15:23:00,62.4,58.1,30.12,SE,128,3.0,16.0,86,0.01,,,0.03,meteohub,2013-05-08 19:23:00,
2013-05-08 15:28:00,61.9,58.6,30.12,South,169,2.0,16.0,89,0.02,,,0.04,meteohub,2013-05-08 19:28:00,
2013-05-08 15:33:00,61.5,57.9,30.11,SE,140,2.0,16.0,88,0.02,,,0.04,meteohub,2013-05-08 19:33:00,
2013-05-08 15:38:00,61.9,57.9,30.12,SSE,153,4.0,11.0,87,0.02,,,0.04,meteohub,2013-05-08 19:38:00,
2013-05-08 15:43:00,61.9,57.9,30.11,SSW,200,2.0,11.0,87,0.02,,,0.04,meteohub,2013-05-08 19:43:00,
2013-05-08 15:48:00,62.1,57.7,30.11,South,188,1.0,11.0,86,0.02,,,0.04,meteohub,2013-05-08 19:48:00,
2013-05-08 15:53:00,62.1,58.1,30.11,SSW,199,2.0,11.0,87,0.03,,,0.05,meteohub,2013-05-08 19:53:00,
2013-05-08 15:58:00,62.2,56.7,30.11,SSE,164,7.0,9.0,82,0.03,,,0.05,meteohub,2013-05-08 19:58:00,
2013-05-08 16:03:00,62.8,56.1,30.10,SSE,149,4.0,11.0,79,0.03,,,0.05,meteohub,2013-05-08 20:03:00,
2013-05-08 16:08:00,63.1,55.4,30.10,SW,215,9.0,11.0,76,0.03,,,0.05,meteohub,2013-05-08 20:08:00,
2013-05-08 16:14:00,63.7,57.7,30.11,South,182,4.0,12.0,81,0.03,,,0.05,meteohub,2013-05-08 20:14:00,
2013-05-08 16:19:00,63.7,56.7,30.11,SE,137,9.0,15.0,78,0.03,,,0.05,meteohub,2013-05-08 20:19:00,
2013-05-08 16:24:00,63.9,56.8,30.11,SSE,150,7.0,16.0,78,0.02,,,0.05,meteohub,2013-05-08 20:24:00,
2013-05-08 16:29:00,63.9,56.1,30.11,SSE,152,4.0,16.0,76,0.01,,,0.05,meteohub,2013-05-08 20:29:00,
2013-05-08 16:34:00,63.9,56.5,30.10,South,183,8.0,17.0,77,0.01,,,0.05,meteohub,2013-05-08 20:34:00,
2013-05-08 16:39:00,64.0,56.7,30.10,SE,138,6.0,18.0,77,0.01,,,0.05,meteohub,2013-05-08 20:39:00,
2013-05-08 16:44:00,64.0,56.3,30.10,SE,146,6.0,18.0,76,0.01,,,0.05,meteohub,2013-05-08 20:44:00,
2013-05-08 16:49:00,64.2,56.8,30.10,South,183,3.0,18.0,77,0.01,,,0.05,meteohub,2013-05-08 20:49:00,
2013-05-08 16:54:00,64.2,56.8,30.10,SSE,157,3.0,18.0,77,0.00,,,0.05,meteohub,2013-05-08 20:54:00,
2013-05-08 16:59:00,64.2,56.8,30.10,SE,139,4.0,18.0,77,0.00,,,0.05,meteohub,2013-05-08 20:59:00,
2013-05-08 17:04:00,64.0,56.7,30.10,SE,126,5.0,13.0,77,0.00,,,0.05,meteohub,2013-05-08 21:04:00,
2013-05-08 17:09:00,64.0,56.3,30.10,SSW,205,6.0,13.0,76,0.00,,,0.05,meteohub,2013-05-08 21:09:00,
2013-05-08 17:14:00,64.2,56.5,30.09,SSE,163,7.0,9.0,76,0.00,,,0.05,meteohub,2013-05-08 21:14:00,
2013-05-08 17:19:00,64.2,56.8,30.09,South,188,1.0,10.0,77,0.00,,,0.05,meteohub,2013-05-08 21:19:00,
2013-05-08 17:24:00,64.2,57.2,30.09,SSW,192,3.0,10.0,78,0.00,,,0.05,meteohub,2013-05-08 21:24:00,
2013-05-08 17:29:00,63.9,56.8,30.09,South,175,2.0,10.0,78,0.00,,,0.05,meteohub,2013-05-08 21:29:00,
2013-05-08 17:34:00,63.9,57.2,30.09,South,190,3.0,9.0,79,0.00,,,0.05,meteohub,2013-05-08 21:34:00,
2013-05-08 17:39:00,63.7,57.4,30.09,SSW,206,4.0,9.0,80,0.00,,,0.05,meteohub,2013-05-08 21:39:00,
2013-05-08 17:44:00,63.3,56.7,30.09,SW,229,4.0,9.0,79,0.00,,,0.05,meteohub,2013-05-08 21:44:00,
2013-05-08 17:49:00,63.1,57.2,30.09,SE,134,2.0,7.0,81,0.00,,,0.05,meteohub,2013-05-08 21:49:00,
2013-05-08 17:54:00,62.8,57.2,30.10,SSE,160,3.0,7.0,82,0.00,,,0.05,meteohub,2013-05-08 21:54:00,
2013-05-08 17:59:00,62.2,57.4,30.10,SSE,148,1.0,7.0,84,0.00,,,0.05,meteohub,2013-05-08 21:59:00,
2013-05-08 18:04:00,61.3,57.2,30.09,SE,144,10.0,10.0,86,0.00,,,0.05,meteohub,2013-05-08 22:04:00,
2013-05-08 18:09:00,60.6,57.0,30.09,SSE,161,8.0,11.0,88,0.01,,,0.06,meteohub,2013-05-08 22:09:00,
2013-05-08 18:14:00,60.3,57.0,30.09,SSE,159,5.0,11.0,89,0.02,,,0.07,meteohub,2013-05-08 22:14:00,
2013-05-08 18:19:00,59.9,57.0,30.09,SSE,153,3.0,12.0,90,0.02,,,0.07,meteohub,2013-05-08 22:19:00,
2013-05-08 18:24:00,59.5,56.7,30.09,SSW,200,0.0,13.0,90,0.03,,,0.08,meteohub,2013-05-08 22:24:00,
2013-05-08 18:29:00,59.2,56.5,30.09,SE,134,2.0,13.0,91,0.03,,,0.08,meteohub,2013-05-08 22:29:00,
2013-05-08 18:34:00,58.8,56.5,30.09,SSE,148,1.0,13.0,92,0.03,,,0.08,meteohub,2013-05-08 22:34:00,
2013-05-08 18:39:00,58.8,56.8,30.09,South,175,3.0,7.0,93,0.03,,,0.08,meteohub,2013-05-08 22:39:00,
2013-05-08 18:44:00,58.6,56.7,30.09,SSE,167,3.0,7.0,93,0.04,,,0.09,meteohub,2013-05-08 22:44:00,
2013-05-08 18:50:00,58.8,56.5,30.08,South,171,3.0,6.0,92,0.04,,,0.09,meteohub,2013-05-08 22:50:00,
2013-05-08 18:55:00,59.2,56.8,30.08,SE,132,4.0,7.0,92,0.04,,,0.09,meteohub,2013-05-08 22:55:00,
2013-05-08 19:00:00,59.4,57.0,30.09,SE,146,4.0,7.0,92,0.04,,,0.09,meteohub,2013-05-08 23:00:00,
2013-05-08 19:05:00,59.5,56.8,30.09,SE,142,5.0,10.0,91,0.03,,,0.09,meteohub,2013-05-08 23:05:00,
2013-05-08 19:10:00,59.5,56.8,30.09,SE,144,5.0,10.0,91,0.03,,,0.09,meteohub,2013-05-08 23:10:00,
2013-05-08 19:15:00,59.4,57.0,30.09,SE,139,1.0,10.0,92,0.02,,,0.09,meteohub,2013-05-08 23:15:00,
2013-05-08 19:20:00,59.4,57.0,30.09,South,174,2.0,10.0,92,0.01,,,0.09,meteohub,2013-05-08 23:20:00,
2013-05-08 19:25:00,59.2,57.2,30.08,SE,134,6.0,10.0,93,0.01,,,0.09,meteohub,2013-05-08 23:25:00,
2013-05-08 19:30:00,59.2,57.2,30.08,South,178,0.0,10.0,93,0.01,,,0.09,meteohub,2013-05-08 23:30:00,
2013-05-08 19:35:00,59.2,57.2,30.08,SE,140,4.0,10.0,93,0.00,,,0.09,meteohub,2013-05-08 23:35:00,
2013-05-08 19:40:00,59.2,57.2,30.08,South,186,3.0,12.0,93,0.00,,,0.09,meteohub,2013-05-08 23:40:00,
2013-05-08 19:45:00,59.2,57.2,30.09,SSE,152,0.0,12.0,93,0.00,,,0.09,meteohub,2013-05-08 23:45:00,
2013-05-08 19:50:00,59.2,57.2,30.09,SE,126,4.0,12.0,93,0.00,,,0.09,meteohub,2013-05-08 23:50:00,
2013-05-08 19:55:00,59.2,57.2,30.09,SSE,157,3.0,8.0,93,0.00,,,0.09,meteohub,2013-05-08 23:55:00,
2013-05-08 20:00:00,58.8,57.0,30.09,South,183,2.0,10.0,94,0.00,,,0.09,meteohub,2013-05-09 00:00:00,
2013-05-08 20:05:00,58.8,57.0,30.09,SSE,157,0.0,10.0,94,0.00,,,0.00,meteohub,2013-05-09 00:05:00,
2013-05-08 20:10:00,58.8,57.0,30.08,SSE,157,0.0,10.0,94,0.01,,,0.01,meteohub,2013-05-09 00:10:00,
2013-05-08 20:15:00,58.6,56.8,30.08,SSE,157,0.0,5.0,94,0.01,,,0.01,meteohub,2013-05-09 00:15:00,
2013-05-08 20:20:00,58.6,56.8,30.09,SE,136,1.0,3.0,94,0.01,,,0.01,meteohub,2013-05-09 00:20:00,
2013-05-08 20:25:00,58.6,57.2,30.09,SE,136,1.0,3.0,95,0.02,,,0.02,meteohub,2013-05-09 00:25:00,
2013-05-08 20:30:00,58.6,57.2,30.08,SE,136,0.0,3.0,95,0.02,,,0.02,meteohub,2013-05-09 00:30:00,
2013-05-08 20:35:00,58.6,57.2,30.09,SE,136,0.0,3.0,95,0.04,,,0.04,meteohub,2013-05-09 00:35:00,
2013-05-08 20:40:00,58.6,57.2,30.09,SE,136,0.0,2.0,95,0.05,,,0.05,meteohub,2013-05-09 00:40:00,
2013-05-08 20:45:00,58.6,57.2,30.09,SE,136,0.0,2.0,95,0.07,,,0.07,meteohub,2013-05-09 00:45:00,
2013-05-08 20:50:00,58.6,57.2,30.08,SE,129,5.0,5.0,95,0.08,,,0.07,meteohub,2013-05-09 00:50:00,
2013-05-08 20:55:00,58.8,57.4,30.08,SSW,196,3.0,6.0,95,0.09,,,0.09,meteohub,2013-05-09 00:55:00,
2013-05-08 21:01:00,59.0,57.2,30.08,South,175,0.0,7.0,94,0.10,,,0.10,meteohub,2013-05-09 01:01:00,
2013-05-08 21:06:00,59.0,57.6,30.08,South,169,0.0,7.0,95,0.11,,,0.11,meteohub,2013-05-09 01:06:00,
2013-05-08 21:11:00,58.8,57.4,30.08,SE,146,2.0,7.0,95,0.11,,,0.12,meteohub,2013-05-09 01:11:00,
2013-05-08 21:16:00,58.8,57.4,30.08,SE,146,2.0,6.0,95,0.11,,,0.12,meteohub,2013-05-09 01:16:00,
2013-05-08 21:21:00,58.8,57.4,30.08,South,179,1.0,6.0,95,0.10,,,0.12,meteohub,2013-05-09 01:21:00,
2013-05-08 21:26:00,58.6,57.2,30.08,SSE,154,0.0,5.0,95,0.10,,,0.12,meteohub,2013-05-09 01:26:00,
2013-05-08 21:31:00,58.6,57.2,30.09,SSE,155,4.0,7.0,95,0.09,,,0.12,meteohub,2013-05-09 01:31:00,
2013-05-08 21:36:00,58.6,57.2,30.08,South,171,2.0,7.0,95,0.08,,,0.12,meteohub,2013-05-09 01:36:00,
2013-05-08 21:41:00,58.6,57.2,30.08,South,175,3.0,8.0,95,0.06,,,0.12,meteohub,2013-05-09 01:41:00,
2013-05-08 21:46:00,58.6,57.6,30.08,SSE,168,3.0,8.0,96,0.05,,,0.12,meteohub,2013-05-09 01:46:00,
2013-05-08 21:51:00,58.6,57.6,30.08,South,178,2.0,11.0,96,0.05,,,0.13,meteohub,2013-05-09 01:51:00,
2013-05-08 21:56:00,58.6,57.6,30.08,SE,137,0.0,11.0,96,0.03,,,0.13,meteohub,2013-05-09 01:56:00,
2013-05-08 22:01:00,58.5,57.4,30.08,SSE,165,3.0,7.0,96,0.03,,,0.13,meteohub,2013-05-09 02:01:00,
2013-05-08 22:06:00,58.5,57.4,30.08,SSE,159,1.0,7.0,96,0.01,,,0.13,meteohub,2013-05-09 02:06:00,
2013-05-08 22:11:00,58.5,57.4,30.08,SSW,196,0.0,7.0,96,0.01,,,0.13,meteohub,2013-05-09 02:11:00,
2013-05-08 22:16:00,58.5,57.4,30.08,South,186,1.0,6.0,96,0.01,,,0.13,meteohub,2013-05-09 02:16:00,
2013-05-08 22:21:00,58.5,57.4,30.08,SSW,193,6.0,11.0,96,0.01,,,0.13,meteohub,2013-05-09 02:21:00,
2013-05-08 22:26:00,58.5,57.4,30.08,South,190,4.0,11.0,96,0.01,,,0.13,meteohub,2013-05-09 02:26:00,
2013-05-08 22:31:00,58.5,57.4,30.08,South,187,3.0,9.0,96,0.01,,,0.13,meteohub,2013-05-09 02:31:00,
2013-05-08 22:36:00,58.5,57.4,30.08,South,169,1.0,9.0,96,0.01,,,0.13,meteohub,2013-05-09 02:36:00,
2013-05-08 22:41:00,58.5,57.4,30.08,SSE,166,2.0,9.0,96,0.01,,,0.13,meteohub,2013-05-09 02:41:00,
2013-05-08 22:46:00,58.5,57.4,30.08,South,179,3.0,5.0,96,0.00,,,0.13,meteohub,2013-05-09 02:46:00,
2013-05-08 22:51:00,58.5,57.4,30.08,South,187,1.0,5.0,96,0.00,,,0.13,meteohub,2013-05-09 02:51:00,
2013-05-08 22:56:00,58.5,57.4,30.08,South,191,0.0,5.0,96,0.00,,,0.13,meteohub,2013-05-09 02:56:00,
2013-05-08 23:01:00,58.5,57.4,30.08,SSE,161,2.0,6.0,96,0.00,,,0.13,meteohub,2013-05-09 03:01:00,
2013-05-08 23:06:00,58.5,57.4,30.08,SSE,158,1.0,6.0,96,0.00,,,0.13,meteohub,2013-05-09 03:06:00,
2013-05-08 23:11:00,58.5,57.4,30.07,SSE,158,1.0,6.0,96,0.00,,,0.13,meteohub,2013-05-09 03:11:00,
2013-05-08 23:16:00,58.3,57.2,30.07,SSE,158,1.0,6.0,96,0.00,,,0.13,meteohub,2013-05-09 03:16:00,
2013-05-08 23:22:00,58.3,57.2,30.07,SSE,158,1.0,4.0,96,0.00,,,0.13,meteohub,2013-05-09 03:22:00,
2013-05-08 23:27:00,58.3,57.4,30.07,SSE,157,1.0,4.0,97,0.00,,,0.13,meteohub,2013-05-09 03:27:00,
2013-05-08 23:32:00,58.3,57.4,30.07,SSE,157,0.0,4.0,97,0.00,,,0.13,meteohub,2013-05-09 03:32:00,
2013-05-08 23:37:00,58.3,57.4,30.07,SSE,157,0.0,3.0,97,0.00,,,0.13,meteohub,2013-05-09 03:37:00,
2013-05-08 23:42:00,58.3,57.4,30.07,SSE,157,0.0,3.0,97,0.00,,,0.13,meteohub,2013-05-09 03:42:00,
2013-05-08 23:47:00,58.3,57.4,30.06,ESE,107,0.0,3.0,97,0.00,,,0.13,meteohub,2013-05-09 03:47:00,
2013-05-08 23:52:00,58.3,57.4,30.06,ESE,106,0.0,5.0,97,0.00,,,0.13,meteohub,2013-05-09 03:52:00,
2013-05-08 23:57:00,58.3,57.4,30.06,SSW,202,0.0,5.0,97,0.00,,,0.13,meteohub,2013-05-09 03:57:00,